Погода в Утешеве

Россия / Калужская область     54°31′07″N   35°41′47″E
темп.,
°C
ветер,
м/с
пор.,
м/с
влажн.,
%
обл.,
%
осадки,
мм/ч
давл.,
гПа
погр.,
м
13 мая, чт
чт1300:00+6юв389815 0.0 1018209
03:00+5вюв38976 0.0 1018155
06:00+7в51394100 0.0 1017377
09:00+12вюв6108455 0.1 1016749
12:00+10юв61291100 2.8 1016711
15:00+14ююв697194 3.1 10141295
18:00+13ююв597798 0.6 1014935
21:00+10ююв368858 0.7 1014105
14 мая, пт
пт1400:00+8ююв359240 0.0 101575
03:00+7юв349470 0.0 101559
06:00+9юв3694100 0.0 1015148
09:00+14юв4780100 0.0 1015420
12:00+18вюв576999 0.1 1013803
15:00+17вюв6108178 1.3 1012652
18:00+18юв3782100 3.6 1009203
21:00+15ююв41091100 12.6 1009207
15 мая, сб
сб1500:00+14юв4119770 1.5 1008270
03:00+13юв369790 1.5 1008116
06:00+13ююв38964 0.0 1008172
09:00+17ююз61081100 0.1 1008677
12:00+19юз686515 0.0 10091401
15:00+19юз68651 0.3 10101314
18:00+18ю587631 0.9 1010531
21:00+13ю3789100 1.1 1011121
16 мая, вс
вс1600:00+13ю3593100 0.1 1011103
03:00+11ю39975 0.7 1012211
06:00+10ююз389739 0.0 1013313
09:00+15зюз468336 0.0 1014638
12:00+19юз45634 0.0 10141295
15:00+20ююз345741 0.0 10141589
18:00+20ю13661 0.0 1014845
21:00+15юв3378100 0.0 101429
17 мая, пн
пн1700:00+13вюв2286100 0.0 101527
03:00+12в349118 0.0 101562
06:00+13в399086 0.0 1014200
09:00+19в6117699 0.0 1013521
12:00+23вюв71064100 0.0 1011985
15:00+25вюв69645 0.0 10101255
18:00+22вюв6126647 0.0 1009692
21:00+17вюв515805 0.0 1009380